sat.trackr.live / text

‹ back to catalog

STARLINK-2684

NORAD 48471 · 2021-040AV

PAYLOAD ACTIVE UNKNOWN

§ Identity

Operator
Country
US
Launch date
2021-05-09
Launch site
AFETR
Launch vehicle
Mass (kg)
RCS (m²)

Purposes: comms

External: N2YO · Heavens-Above · Gunter

§ Orbital elements

Epoch: 2026-05-25T03:47:29.248224Z

Period
94.01 min
Inclination
53.1562°
Eccentricity
0.0001260
Mean motion
15.31706809 rev/d
Perigee alt
469.9 km
Apogee alt
471.6 km
Semi-major
6,848.9 km
B*
7.7004e-4
RAAN
195.3868°
Arg perigee
98.5958°
Mean anomaly
261.5186°
Rev number
27,821

§ Raw data

STARLINK-26841 48471U 21040AV  26145.15797741  .00023611  00000+0  77004-3 0  99932 48471  53.1562 195.3868 0001260  98.5958 261.5186 15.31706809278210

JSON: /api/v1/satellites/48471 · /tle

For live sub-satellite position, see the globe view (requires WebGL).

§ Visibility from observer

Set your observer location to see the next 7 days of passes ≥ 10°. The values pass through the URL so the page stays shareable.

No JS? Fill the form by hand. The geolocation button needs JavaScript.